• Em Portugal
  • Lista de países
  • Para 7 dias
  • Temperatura da água
  • Mapas de satélite
  • Mapa do tempo
  • Widgets de tempo
  • user-avatar
    Iniciar Sessão

    Previsão horária em Roslavka

    Hoje, 17 Julho, Terça-feira

    Tempo Temperatura Precipitação Vento Pressão Humidade
    00:00 +24°C° 0,1 mm 1 m/s 743 mmHg 84%
    01:00 +24°C° 1,3 mm 1 m/s 743 mmHg 88%
    02:00 +23°C° 1,3 mm 1 m/s 742 mmHg 92%
    03:00 +23°C° 0 mm 1 m/s 742 mmHg 96%
    04:00 +23°C° 7,4 mm 1 m/s 742 mmHg 97%
    05:00 +23°C° 7,4 mm 1 m/s 742 mmHg 98%
    06:00 +23°C° 7,4 mm 1 m/s 742 mmHg 98%
    07:00 +23°C° 5,5 mm 1 m/s 742 mmHg 98%
    08:00 +23°C° 5,5 mm 1 m/s 742 mmHg 98%
    09:00 +23°C° 0 mm 1 m/s 742 mmHg 98%
    10:00 +23°C° 1,2 mm 1 m/s 742 mmHg 97%
    11:00 +23°C° 1,2 mm 1 m/s 742 mmHg 97%
    12:00 +23°C° 1,2 mm 2 m/s 742 mmHg 96%
    13:00 +24°C° 0,1 mm 2 m/s 742 mmHg 93%
    14:00 +25°C° 0,1 mm 2 m/s 742 mmHg 90%
    15:00 +25°C° 0,1 mm 2 m/s 742 mmHg 87%
    16:00 +26°C° 0,1 mm 2 m/s 742 mmHg 87%
    17:00 +26°C° 0,1 mm 1 m/s 742 mmHg 88%
    18:00 +26°C° 0,1 mm 1 m/s 742 mmHg 89%
    19:00 +25°C° 0,2 mm 1 m/s 743 mmHg 90%
    20:00 +24°C° 0,2 mm 1 m/s 743 mmHg 92%
    21:00 +23°C° 0,2 mm 1 m/s 743 mmHg 94%
    22:00 +23°C° 0 mm 1 m/s 743 mmHg 94%
    23:00 +23°C° 0 mm 1 m/s 744 mmHg 95%

    Amanhã, 18 Julho, Quarta-feira

    Tempo Temperatura Precipitação Vento Pressão Humidade
    00:00 +22°C° 0 mm 1 m/s 744 mmHg 95%
    01:00 +22°C° 0 mm 1 m/s 744 mmHg 95%
    02:00 +22°C° 0 mm 1 m/s 744 mmHg 96%
    03:00 +21°C° 0 mm 1 m/s 744 mmHg 96%
    04:00 +22°C° 0 mm 1 m/s 744 mmHg 96%
    05:00 +22°C° 0 mm 1 m/s 744 mmHg 96%
    06:00 +22°C° 0 mm 1 m/s 744 mmHg 95%
    07:00 +24°C° 0 mm 1 m/s 744 mmHg 89%
    08:00 +26°C° 0 mm 2 m/s 744 mmHg 83%
    09:00 +27°C° 0 mm 2 m/s 744 mmHg 77%
    10:00 +29°C° 0 mm 2 m/s 744 mmHg 73%
    11:00 +30°C° 0 mm 2 m/s 744 mmHg 70%
    12:00 +31°C° 0 mm 2 m/s 744 mmHg 67%
    13:00 +31°C° 0,4 mm 2 m/s 744 mmHg 69%
    14:00 +31°C° 0,4 mm 2 m/s 743 mmHg 72%
    15:00 +31°C° 0,4 mm 2 m/s 743 mmHg 74%
    16:00 +31°C° 0,1 mm 2 m/s 743 mmHg 76%
    17:00 +30°C° 0,1 mm 2 m/s 742 mmHg 79%
    18:00 +30°C° 0,1 mm 1 m/s 742 mmHg 81%
    19:00 +28°C° 0 mm 1 m/s 742 mmHg 85%
    20:00 +26°C° 0 mm 1 m/s 742 mmHg 90%
    21:00 +25°C° 0 mm 1 m/s 742 mmHg 94%
    22:00 +24°C° 0 mm 1 m/s 742 mmHg 94%
    23:00 +23°C° 0 mm 1 m/s 742 mmHg 95%

    Depois de amanhã, 19 Julho, Quinta-feira

    Tempo Temperatura Precipitação Vento Pressão Humidade
    00:00 +23°C° 0 mm 2 m/s 742 mmHg 95%
    01:00 +23°C° 0 mm 2 m/s 742 mmHg 95%
    02:00 +21°C° 0 mm 2 m/s 742 mmHg 95%
    03:00 +21°C° 0 mm 2 m/s 742 mmHg 94%
    04:00 +21°C° 0 mm 2 m/s 742 mmHg 93%
    05:00 +21°C° 0 mm 2 m/s 742 mmHg 92%
    06:00 +23°C° 0 mm 2 m/s 741 mmHg 90%
    07:00 +24°C° 0,1 mm 2 m/s 742 mmHg 86%
    08:00 +26°C° 0,1 mm 2 m/s 742 mmHg 81%
    09:00 +28°C° 0,1 mm 3 m/s 742 mmHg 77%
    10:00 +29°C° 0,1 mm 3 m/s 741 mmHg 74%
    11:00 +31°C° 0,1 mm 3 m/s 741 mmHg 71%
    12:00 +33°C° 0,1 mm 3 m/s 741 mmHg 67%
    13:00 +33°C° 1 mm 3 m/s 740 mmHg 71%
    14:00 +33°C° 1 mm 3 m/s 740 mmHg 75%
    15:00 +33°C° 1 mm 3 m/s 740 mmHg 78%
    16:00 +32°C° 0 mm 2 m/s 740 mmHg 78%
    17:00 +32°C° 0 mm 2 m/s 740 mmHg 77%
    18:00 +32°C° 0 mm 2 m/s 740 mmHg 76%
    19:00 +30°C° 0 mm 2 m/s 740 mmHg 82%
    20:00 +28°C° 0 mm 1 m/s 740 mmHg 87%
    21:00 +27°C° 0 mm 1 m/s 740 mmHg 92%
    22:00 +26°C° 0 mm 2 m/s 740 mmHg 93%
    23:00 +26°C° 0 mm 2 m/s 740 mmHg 93%

    20 Julho, Sexta-feira

    Tempo Temperatura Precipitação Vento Pressão Humidade
    00:00 +25°C° 0 mm 2 m/s 740 mmHg 94%
    01:00 +25°C° 0 mm 2 m/s 740 mmHg 93%
    02:00 +25°C° 0 mm 2 m/s 740 mmHg 92%
    03:00 +24°C° 0 mm 2 m/s 740 mmHg 91%
    04:00 +25°C° 0,6 mm 1 m/s 740 mmHg 91%
    05:00 +25°C° 0,6 mm 1 m/s 740 mmHg 92%
    06:00 +25°C° 0,6 mm 1 m/s 740 mmHg 93%
    07:00 +26°C° 0,5 mm 1 m/s 740 mmHg 89%
    08:00 +27°C° 0,5 mm 1 m/s 741 mmHg 85%
    09:00 +29°C° 0,5 mm 2 m/s 741 mmHg 81%
    10:00 +31°C° 0 mm 2 m/s 741 mmHg 73%
    11:00 +34°C° 0 mm 2 m/s 741 mmHg 65%
    12:00 +37°C° 0 mm 2 m/s 740 mmHg 56%
    13:00 +37°C° 0 mm 2 m/s 740 mmHg 56%
    14:00 +37°C° 0 mm 2 m/s 740 mmHg 55%
    15:00 +37°C° 0 mm 2 m/s 740 mmHg 54%
    16:00 +36°C° 0,6 mm 2 m/s 740 mmHg 64%
    17:00 +33°C° 0,6 mm 1 m/s 740 mmHg 74%
    18:00 +32°C° 0,6 mm 1 m/s 740 mmHg 84%
    19:00 +30°C° 0,7 mm 1 m/s 740 mmHg 86%
    20:00 +29°C° 0,7 mm 1 m/s 740 mmHg 88%
    21:00 +25°C° 0,7 mm 0 m/s 741 mmHg 90%
    22:00 +27°C° 0,3 mm 1 m/s 741 mmHg 91%
    23:00 +27°C° 0,3 mm 1 m/s 741 mmHg 92%

    21 Julho, Sábado

    Tempo Temperatura Precipitação Vento Pressão Humidade
    00:00 +26°C° 0,3 mm 1 m/s 741 mmHg 93%
    01:00 +26°C° 0,1 mm 1 m/s 740 mmHg 93%
    02:00 +26°C° 0,1 mm 1 m/s 740 mmHg 93%
    03:00 +25°C° 0,1 mm 2 m/s 740 mmHg 93%
    04:00 +25°C° 0,1 mm 2 m/s 740 mmHg 92%
    05:00 +25°C° 0,1 mm 2 m/s 740 mmHg 92%
    06:00 +25°C° 0,1 mm 2 m/s 740 mmHg 91%
    07:00 +27°C° 0 mm 2 m/s 740 mmHg 84%
    08:00 +29°C° 0 mm 2 m/s 741 mmHg 77%
    09:00 +30°C° 0 mm 2 m/s 741 mmHg 70%
    10:00 +32°C° 0,1 mm 2 m/s 741 mmHg 67%
    11:00 +34°C° 0,1 mm 2 m/s 741 mmHg 65%
    12:00 +35°C° 0,1 mm 3 m/s 740 mmHg 62%
    13:00 +35°C° 0,4 mm 2 m/s 740 mmHg 67%
    14:00 +35°C° 0,4 mm 2 m/s 740 mmHg 72%
    15:00 +34°C° 0,4 mm 2 m/s 740 mmHg 78%
    16:00 +34°C° 0,6 mm 2 m/s 740 mmHg 82%
    17:00 +32°C° 0,6 mm 1 m/s 741 mmHg 85%
    18:00 +31°C° 0,6 mm 1 m/s 741 mmHg 89%
    19:00 +30°C° 0,1 mm 1 m/s 741 mmHg 91%
    20:00 +27°C° 0,1 mm 0 m/s 741 mmHg 93%
    21:00 +25°C° 0,1 mm 0 m/s 742 mmHg 94%
    22:00 +25°C° 0 mm 0 m/s 742 mmHg 95%
    23:00 +27°C° 0 mm 1 m/s 742 mmHg 95%

    22 Julho, Domingo

    Tempo Temperatura Precipitação Vento Pressão Humidade
    00:00 +26°C° 0 mm 1 m/s 742 mmHg 96%
    01:00 +26°C° 0 mm 1 m/s 742 mmHg 96%
    02:00 +26°C° 0 mm 1 m/s 742 mmHg 96%
    03:00 +25°C° 0 mm 1 m/s 742 mmHg 96%
    04:00 +25°C° 0 mm 1 m/s 742 mmHg 96%
    05:00 +25°C° 0 mm 1 m/s 742 mmHg 96%
    06:00 +25°C° 0 mm 1 m/s 742 mmHg 96%
    07:00 +27°C° 0 mm 2 m/s 742 mmHg 87%
    08:00 +28°C° 0 mm 2 m/s 742 mmHg 78%
    09:00 +30°C° 0 mm 2 m/s 742 mmHg 69%
    10:00 +32°C° 0 mm 2 m/s 742 mmHg 64%
    11:00 +34°C° 0 mm 3 m/s 742 mmHg 58%
    12:00 +36°C° 0 mm 3 m/s 741 mmHg 52%
    13:00 +36°C° 0 mm 3 m/s 741 mmHg 51%
    14:00 +36°C° 0 mm 3 m/s 740 mmHg 50%
    15:00 +37°C° 0 mm 3 m/s 740 mmHg 49%
    16:00 +35°C° 0 mm 3 m/s 740 mmHg 56%
    17:00 +34°C° 0 mm 2 m/s 740 mmHg 63%
    18:00 +32°C° 0 mm 2 m/s 740 mmHg 70%
    19:00 +31°C° 0 mm 1 m/s 740 mmHg 73%
    20:00 +29°C° 0 mm 1 m/s 740 mmHg 76%
    21:00 +27°C° 0 mm 1 m/s 741 mmHg 80%
    22:00 +27°C° 0,1 mm 1 m/s 740 mmHg 81%
    23:00 +26°C° 0,1 mm 1 m/s 740 mmHg 83%
    Mostrar mais